Time,TemperatureF,DewpointF,PressureIn,WindDirection,WindDirectionDegrees,WindSpeedMPH,WindSpeedGustMPH,Humidity,HourlyPrecipIn,Conditions,Clouds,dailyrainin,SoftwareType,DateUTC
2013-03-23 00:00:00,46.5,43.7,30.04,NE,47,0.0,0.0,90,0.00,CLR,,0.01,WeatherDisplay:10.37,2013-03-23 04:00:00,
2013-03-23 00:05:00,46.5,43.7,30.04,NE,46,0.0,0.0,90,0.00,RA,,0.00,WeatherDisplay:10.37,2013-03-23 04:05:00,
2013-03-23 00:10:00,46.5,43.7,30.04,NE,47,0.0,0.0,90,0.00,CLR,,0.00,WeatherDisplay:10.37,2013-03-23 04:10:00,
2013-03-23 00:15:00,46.5,43.7,30.04,NE,47,0.0,0.0,90,0.00,CLR,,0.00,WeatherDisplay:10.37,2013-03-23 04:15:00,
2013-03-23 00:20:00,46.5,43.4,30.04,NE,46,0.0,0.0,89,0.00,CLR,,0.00,WeatherDisplay:10.37,2013-03-23 04:20:00,
2013-03-23 00:25:00,46.4,43.3,30.04,NE,47,0.0,0.0,89,0.00,CLR,,0.00,WeatherDisplay:10.37,2013-03-23 04:25:00,
2013-03-23 00:30:00,46.4,43.3,30.04,NE,47,0.0,0.0,89,0.00,CLR,,0.00,WeatherDisplay:10.37,2013-03-23 04:30:00,
2013-03-23 00:35:00,46.3,43.2,30.03,NE,46,0.0,0.0,89,0.00,CLR,,0.00,WeatherDisplay:10.37,2013-03-23 04:35:00,
2013-03-23 00:40:00,46.1,43.0,30.03,NE,47,0.0,0.0,89,0.00,CLR,,0.00,WeatherDisplay:10.37,2013-03-23 04:40:00,
2013-03-23 00:45:00,46.0,42.9,30.04,NE,46,0.0,0.0,89,0.00,CLR,,0.00,WeatherDisplay:10.37,2013-03-23 04:45:00,
2013-03-23 00:50:00,45.9,42.8,30.04,NE,46,0.0,0.0,89,0.00,CLR,,0.00,WeatherDisplay:10.37,2013-03-23 04:50:00,
2013-03-23 00:55:00,45.8,42.7,30.03,NE,47,0.0,0.0,89,0.00,CLR,,0.00,WeatherDisplay:10.37,2013-03-23 04:55:00,
2013-03-23 01:00:00,45.6,42.5,30.03,NE,47,0.0,0.0,89,0.00,CLR,,0.00,WeatherDisplay:10.37,2013-03-23 05:00:00,
2013-03-23 01:05:00,45.6,42.5,30.03,NE,47,0.0,0.0,89,0.00,CLR,,0.00,WeatherDisplay:10.37,2013-03-23 05:05:00,
2013-03-23 01:10:00,45.4,42.3,30.03,NE,46,0.0,0.0,89,0.00,CLR,,0.00,WeatherDisplay:10.37,2013-03-23 05:10:00,
2013-03-23 01:15:00,45.3,42.2,30.02,NE,46,0.0,0.0,89,0.00,CLR,,0.00,WeatherDisplay:10.37,2013-03-23 05:15:00,
2013-03-23 01:20:00,45.2,42.4,30.02,NE,47,0.0,0.0,90,0.00,CLR,,0.00,WeatherDisplay:10.37,2013-03-23 05:20:00,
2013-03-23 01:25:00,45.1,42.3,30.02,NE,47,0.0,0.0,90,0.00,CLR,,0.00,WeatherDisplay:10.37,2013-03-23 05:25:00,
2013-03-23 01:30:00,45.0,42.2,30.02,NE,46,0.0,0.0,90,0.00,CLR,,0.00,WeatherDisplay:10.37,2013-03-23 05:30:00,
2013-03-23 01:35:00,44.9,42.1,30.01,NE,47,0.0,0.0,90,0.00,CLR,,0.00,WeatherDisplay:10.37,2013-03-23 05:35:00,
2013-03-23 01:40:00,44.9,42.1,30.01,NE,47,0.0,0.0,90,0.00,CLR,,0.00,WeatherDisplay:10.37,2013-03-23 05:40:00,
2013-03-23 01:45:00,44.9,42.4,30.01,NE,46,0.0,0.0,91,0.00,CLR,,0.00,WeatherDisplay:10.37,2013-03-23 05:45:00,
2013-03-23 01:50:00,44.9,42.4,30.01,NE,47,0.0,0.0,91,0.00,CLR,,0.00,WeatherDisplay:10.37,2013-03-23 05:50:00,
2013-03-23 01:55:00,45.0,42.5,30.01,NE,47,0.0,0.0,91,0.00,CLR,,0.00,WeatherDisplay:10.37,2013-03-23 05:55:00,
2013-03-23 02:00:00,45.0,42.5,30.01,NE,47,0.0,0.0,91,0.00,CLR,,0.00,WeatherDisplay:10.37,2013-03-23 06:00:00,
2013-03-23 02:05:00,45.1,42.9,30.01,NE,47,0.0,0.0,92,0.00,CLR,,0.00,WeatherDisplay:10.37,2013-03-23 06:05:00,
2013-03-23 02:10:00,45.1,42.9,30.01,NE,46,0.0,0.0,92,0.00,CLR,,0.00,WeatherDisplay:10.37,2013-03-23 06:10:00,
2013-03-23 02:15:00,45.2,43.0,30.01,NE,47,0.0,0.0,92,0.00,CLR,,0.00,WeatherDisplay:10.37,2013-03-23 06:15:00,
2013-03-23 02:20:00,45.2,43.0,30.00,NE,47,0.0,0.0,92,0.00,CLR,,0.00,WeatherDisplay:10.37,2013-03-23 06:20:00,
2013-03-23 02:25:00,45.2,43.0,30.00,NE,46,0.0,0.0,92,0.00,CLR,,0.00,WeatherDisplay:10.37,2013-03-23 06:25:00,
2013-03-23 02:30:00,45.2,43.0,30.00,NE,46,0.0,0.0,92,0.00,CLR,,0.00,WeatherDisplay:10.37,2013-03-23 06:30:00,
2013-03-23 02:35:00,45.1,42.9,30.00,NE,47,0.0,0.0,92,0.00,CLR,,0.00,WeatherDisplay:10.37,2013-03-23 06:35:00,
2013-03-23 02:40:00,45.1,42.9,30.00,NE,47,0.0,0.0,92,0.00,CLR,,0.00,WeatherDisplay:10.37,2013-03-23 06:40:00,
2013-03-23 02:45:00,45.1,42.9,30.00,NE,46,0.0,0.0,92,0.00,CLR,,0.00,WeatherDisplay:10.37,2013-03-23 06:45:00,
2013-03-23 02:50:00,45.2,43.0,30.00,NE,47,0.0,0.0,92,0.00,CLR,,0.00,WeatherDisplay:10.37,2013-03-23 06:50:00,
2013-03-23 02:55:00,45.2,43.0,30.00,NE,47,0.0,0.0,92,0.00,CLR,,0.00,WeatherDisplay:10.37,2013-03-23 06:55:00,
2013-03-23 03:00:00,45.4,43.2,30.00,NE,46,0.0,0.0,92,0.00,CLR,,0.00,WeatherDisplay:10.37,2013-03-23 07:00:00,
2013-03-23 03:05:00,45.6,43.4,29.99,NE,47,0.0,0.0,92,0.00,CLR,,0.00,WeatherDisplay:10.37,2013-03-23 07:05:00,
2013-03-23 03:10:00,45.8,43.6,29.99,NE,47,0.0,0.0,92,0.00,CLR,,0.00,WeatherDisplay:10.37,2013-03-23 07:10:00,
2013-03-23 03:15:00,45.9,43.7,29.99,NE,47,0.0,0.0,92,0.01,RA,,0.01,WeatherDisplay:10.37,2013-03-23 07:15:00,
2013-03-23 03:20:00,45.9,43.7,29.98,NE,47,0.0,0.0,92,0.01,RA,,0.01,WeatherDisplay:10.37,2013-03-23 07:20:00,
2013-03-23 03:25:00,46.0,44.1,29.98,NE,46,0.0,0.0,93,0.01,,,0.01,WeatherDisplay:10.37,2013-03-23 07:25:00,
2013-03-23 03:30:00,46.2,44.3,29.98,NE,47,0.0,0.0,93,0.01,CLR,,0.01,WeatherDisplay:10.37,2013-03-23 07:30:00,
2013-03-23 03:35:00,46.4,44.5,29.98,NE,47,0.0,0.0,93,0.01,CLR,,0.01,WeatherDisplay:10.37,2013-03-23 07:35:00,
2013-03-23 03:40:00,46.7,44.8,29.98,NE,46,0.0,0.0,93,0.01,CLR,,0.01,WeatherDisplay:10.37,2013-03-23 07:40:00,
2013-03-23 03:45:00,46.9,44.7,29.97,NE,47,0.0,0.0,92,0.01,CLR,,0.01,WeatherDisplay:10.37,2013-03-23 07:45:00,
2013-03-23 03:50:00,47.2,45.0,29.97,NE,47,2.3,2.3,92,0.01,CLR,,0.01,WeatherDisplay:10.37,2013-03-23 07:50:00,
2013-03-23 03:55:00,47.6,45.4,29.97,NE,46,0.0,0.0,92,0.01,CLR,,0.01,WeatherDisplay:10.37,2013-03-23 07:55:00,
2013-03-23 04:00:00,47.9,45.4,29.97,NE,46,0.0,0.0,91,0.01,CLR,,0.01,WeatherDisplay:10.37,2013-03-23 08:00:00,
2013-03-23 04:05:00,48.1,45.3,29.97,NE,47,0.0,0.0,90,0.01,CLR,,0.01,WeatherDisplay:10.37,2013-03-23 08:05:00,
2013-03-23 04:10:00,48.2,45.4,29.96,NE,46,0.0,0.0,90,0.01,CLR,,0.01,WeatherDisplay:10.37,2013-03-23 08:10:00,
2013-03-23 04:15:00,48.3,45.5,29.97,NE,47,0.0,0.0,90,0.00,CLR,,0.01,WeatherDisplay:10.37,2013-03-23 08:15:00,
2013-03-23 04:20:00,48.4,45.3,29.97,NE,47,0.0,0.0,89,0.00,CLR,,0.01,WeatherDisplay:10.37,2013-03-23 08:20:00,
2013-03-23 04:25:00,48.5,45.4,29.97,NE,47,0.0,0.0,89,0.00,CLR,,0.01,WeatherDisplay:10.37,2013-03-23 08:25:00,
2013-03-23 04:30:00,48.6,45.5,29.96,NE,47,0.0,0.0,89,0.00,CLR,,0.01,WeatherDisplay:10.37,2013-03-23 08:30:00,
2013-03-23 04:35:00,48.6,45.5,29.96,NE,47,0.0,0.0,89,0.00,CLR,,0.01,WeatherDisplay:10.37,2013-03-23 08:35:00,
2013-03-23 04:40:00,48.7,45.6,29.96,NE,47,0.0,0.0,89,0.00,CLR,,0.01,WeatherDisplay:10.37,2013-03-23 08:40:00,
2013-03-23 04:45:00,48.8,45.7,29.96,NE,47,0.0,0.0,89,0.00,CLR,,0.01,WeatherDisplay:10.37,2013-03-23 08:45:00,
2013-03-23 04:50:00,48.8,45.7,29.96,NE,47,0.0,0.0,89,0.00,CLR,,0.01,WeatherDisplay:10.37,2013-03-23 08:50:00,
2013-03-23 04:55:00,48.8,45.7,29.95,NE,46,0.0,0.0,89,0.00,CLR,,0.01,WeatherDisplay:10.37,2013-03-23 08:55:00,
2013-03-23 05:00:00,48.8,45.7,29.96,NE,47,0.0,0.0,89,0.00,CLR,,0.01,WeatherDisplay:10.37,2013-03-23 09:00:00,
2013-03-23 05:05:00,48.8,45.7,29.96,NE,47,0.0,0.0,89,0.00,CLR,,0.01,WeatherDisplay:10.37,2013-03-23 09:05:00,
2013-03-23 05:10:00,48.8,45.4,29.95,NE,46,0.0,0.0,88,0.00,CLR,,0.01,WeatherDisplay:10.37,2013-03-23 09:10:00,
2013-03-23 05:15:00,48.7,45.3,29.95,NE,47,0.0,0.0,88,0.00,CLR,,0.01,WeatherDisplay:10.37,2013-03-23 09:15:00,
2013-03-23 05:20:00,48.7,45.3,29.95,NE,47,0.0,0.0,88,0.00,CLR,,0.01,WeatherDisplay:10.37,2013-03-23 09:20:00,
2013-03-23 05:25:00,48.7,45.3,29.95,NE,47,0.0,0.0,88,0.00,CLR,,0.01,WeatherDisplay:10.37,2013-03-23 09:25:00,
2013-03-23 05:30:00,48.6,45.2,29.95,NE,46,0.0,0.0,88,0.00,CLR,,0.01,WeatherDisplay:10.37,2013-03-23 09:30:00,
2013-03-23 05:35:00,48.6,45.2,29.95,NE,47,0.0,0.0,88,0.00,CLR,,0.01,WeatherDisplay:10.37,2013-03-23 09:35:00,
2013-03-23 05:40:00,48.6,45.5,29.94,NE,47,0.0,0.0,89,0.00,CLR,,0.01,WeatherDisplay:10.37,2013-03-23 09:40:00,
2013-03-23 05:45:00,48.7,45.6,29.94,NE,46,0.0,0.0,89,0.00,CLR,,0.01,WeatherDisplay:10.37,2013-03-23 09:45:00,
2013-03-23 05:50:00,48.8,45.7,29.94,NE,47,0.0,0.0,89,0.00,CLR,,0.01,WeatherDisplay:10.37,2013-03-23 09:50:00,
2013-03-23 05:55:00,48.9,45.8,29.93,NE,47,3.0,3.0,89,0.00,CLR,,0.01,WeatherDisplay:10.37,2013-03-23 09:55:00,
2013-03-23 06:00:00,49.1,46.0,29.93,ENE,69,0.0,0.0,89,0.00,CLR,,0.01,WeatherDisplay:10.37,2013-03-23 10:00:00,
2013-03-23 06:05:00,49.2,46.1,29.93,ENE,78,5.0,5.0,89,0.00,CLR,,0.01,WeatherDisplay:10.37,2013-03-23 10:05:00,
2013-03-23 06:10:00,49.5,46.4,29.93,East,82,3.5,3.5,89,0.00,CLR,,0.01,WeatherDisplay:10.37,2013-03-23 10:10:00,
2013-03-23 06:15:00,49.7,46.6,29.93,East,86,4.6,4.6,89,0.00,CLR,,0.01,WeatherDisplay:10.37,2013-03-23 10:15:00,
2013-03-23 06:20:00,50.0,46.9,29.93,East,90,0.0,0.0,89,0.00,CLR,,0.01,WeatherDisplay:10.37,2013-03-23 10:20:00,
2013-03-23 06:25:00,50.2,46.8,29.93,East,90,0.0,0.0,88,0.00,CLR,,0.01,WeatherDisplay:10.37,2013-03-23 10:25:00,
2013-03-23 06:30:00,50.4,47.0,29.93,East,88,0.0,0.0,88,0.00,CLR,,0.01,WeatherDisplay:10.37,2013-03-23 10:30:00,
2013-03-23 06:35:00,50.5,47.1,29.93,East,93,3.5,3.5,88,0.00,CLR,,0.01,WeatherDisplay:10.37,2013-03-23 10:35:00,
2013-03-23 06:40:00,50.7,47.3,29.94,ESE,105,4.0,4.0,88,0.00,CLR,,0.01,WeatherDisplay:10.37,2013-03-23 10:40:00,
2013-03-23 06:45:00,51.0,47.6,29.94,ESE,108,3.5,3.5,88,0.00,CLR,,0.01,WeatherDisplay:10.37,2013-03-23 10:45:00,
2013-03-23 06:50:00,51.2,47.5,29.94,ESE,117,0.0,0.0,87,0.00,CLR,,0.01,WeatherDisplay:10.37,2013-03-23 10:50:00,
2013-03-23 06:55:00,51.3,47.6,29.94,ESE,117,0.0,0.0,87,0.00,CLR,,0.01,WeatherDisplay:10.37,2013-03-23 10:55:00,
2013-03-23 07:00:00,51.4,47.7,29.94,ESE,117,0.0,0.0,87,0.00,CLR,,0.01,WeatherDisplay:10.37,2013-03-23 11:00:00,
2013-03-23 07:05:00,51.5,47.5,29.94,ESE,116,1.2,0.0,86,0.00,CLR,,0.01,WeatherDisplay:10.37,2013-03-23 11:05:00,
2013-03-23 07:10:00,51.7,47.6,29.94,ESE,111,1.2,0.0,86,0.00,CLR,,0.01,WeatherDisplay:10.37,2013-03-23 11:10:00,
2013-03-23 07:15:00,51.8,47.7,29.93,ESE,105,6.9,6.9,86,0.00,CLR,,0.01,WeatherDisplay:10.37,2013-03-23 11:15:00,
2013-03-23 07:20:00,52.0,47.6,29.94,East,101,1.2,0.0,85,0.00,CLR,,0.01,WeatherDisplay:10.37,2013-03-23 11:20:00,
2013-03-23 07:25:00,52.1,47.7,29.94,ESE,108,6.9,6.9,85,0.00,CLR,,0.01,WeatherDisplay:10.37,2013-03-23 11:25:00,
2013-03-23 07:30:00,52.1,47.7,29.94,ESE,105,3.0,3.0,85,0.00,CLR,,0.01,WeatherDisplay:10.37,2013-03-23 11:30:00,
2013-03-23 07:35:00,52.2,47.8,29.94,ESE,113,3.5,3.5,85,0.00,CLR,,0.01,WeatherDisplay:10.37,2013-03-23 11:35:00,
2013-03-23 07:40:00,52.2,47.8,29.94,ESE,108,0.0,0.0,85,0.00,CLR,,0.01,WeatherDisplay:10.37,2013-03-23 11:40:00,
2013-03-23 07:45:00,52.2,47.8,29.94,ESE,108,0.0,0.0,85,0.00,CLR,,0.01,WeatherDisplay:10.37,2013-03-23 11:45:00,
2013-03-23 07:50:00,52.1,47.7,29.94,ESE,107,0.0,0.0,85,0.00,CLR,,0.01,WeatherDisplay:10.37,2013-03-23 11:50:00,
2013-03-23 07:55:00,52.1,47.7,29.94,ESE,109,0.0,0.0,85,0.00,CLR,,0.01,WeatherDisplay:10.37,2013-03-23 11:55:00,
2013-03-23 08:00:00,52.1,48.0,29.94,ESE,106,3.5,3.5,86,0.00,CLR,,0.01,WeatherDisplay:10.37,2013-03-23 12:00:00,
2013-03-23 08:05:00,52.1,48.0,29.94,ESE,115,0.0,0.0,86,0.00,CLR,,0.01,WeatherDisplay:10.37,2013-03-23 12:05:00,
2013-03-23 08:10:00,52.2,48.1,29.93,ESE,113,0.0,0.0,86,0.00,CLR,,0.01,WeatherDisplay:10.37,2013-03-23 12:10:00,
2013-03-23 08:15:00,52.3,48.2,29.93,ESE,113,0.0,0.0,86,0.00,CLR,,0.01,WeatherDisplay:10.37,2013-03-23 12:15:00,
2013-03-23 08:20:00,52.5,48.4,29.93,ESE,112,3.0,3.0,86,0.00,CLR,,0.01,WeatherDisplay:10.37,2013-03-23 12:20:00,
2013-03-23 08:25:00,52.7,48.9,29.94,ESE,113,0.0,0.0,87,0.00,CLR,,0.01,WeatherDisplay:10.37,2013-03-23 12:25:00,
2013-03-23 08:30:00,52.9,48.8,29.94,ESE,112,0.0,0.0,86,0.00,CLR,,0.01,WeatherDisplay:10.37,2013-03-23 12:30:00,
2013-03-23 08:35:00,53.2,49.1,29.94,ESE,110,0.0,0.0,86,0.00,CLR,,0.01,WeatherDisplay:10.37,2013-03-23 12:35:00,
2013-03-23 08:40:00,53.4,49.3,29.94,ESE,110,0.0,0.0,86,0.00,CLR,,0.01,WeatherDisplay:10.37,2013-03-23 12:40:00,
2013-03-23 08:45:00,53.7,49.6,29.94,ESE,109,1.2,0.0,86,0.00,CLR,,0.01,WeatherDisplay:10.37,2013-03-23 12:45:00,
2013-03-23 08:50:00,53.9,49.8,29.94,ESE,109,3.5,3.5,86,0.00,CLR,,0.01,WeatherDisplay:10.37,2013-03-23 12:50:00,
2013-03-23 08:56:00,54.1,50.0,29.93,ESE,107,3.5,3.5,86,0.00,CLR,,0.01,WeatherDisplay:10.37,2013-03-23 12:56:00,
2013-03-23 09:01:00,54.4,50.3,29.93,East,87,5.8,5.8,86,0.00,CLR,,0.01,WeatherDisplay:10.37,2013-03-23 13:01:00,
2013-03-23 09:06:00,54.7,50.3,29.93,East,95,4.6,4.6,85,0.00,CLR,,0.01,WeatherDisplay:10.37,2013-03-23 13:06:00,
2013-03-23 09:11:00,55.0,50.6,29.93,East,99,4.6,4.6,85,0.00,CLR,,0.01,WeatherDisplay:10.37,2013-03-23 13:11:00,
2013-03-23 09:16:00,55.1,50.4,29.93,East,87,6.9,6.9,84,0.00,CLR,,0.01,WeatherDisplay:10.37,2013-03-23 13:16:00,
2013-03-23 09:21:00,55.5,50.7,29.93,East,86,6.9,6.9,84,0.00,CLR,,0.01,WeatherDisplay:10.37,2013-03-23 13:21:00,
2013-03-23 09:26:00,55.8,50.7,29.93,East,96,4.6,4.6,83,0.00,CLR,,0.01,WeatherDisplay:10.37,2013-03-23 13:26:00,
2013-03-23 09:31:00,56.0,50.9,29.93,East,99,6.0,6.0,83,0.00,CLR,,0.01,WeatherDisplay:10.37,2013-03-23 13:31:00,
2013-03-23 09:37:00,56.3,51.2,29.93,ESE,114,4.6,4.6,83,0.00,CLR,,0.01,WeatherDisplay:10.37,2013-03-23 13:37:00,
2013-03-23 09:42:00,56.6,51.5,29.93,ESE,102,4.0,4.0,83,0.00,CLR,,0.01,WeatherDisplay:10.37,2013-03-23 13:42:00,
2013-03-23 09:47:00,57.0,51.9,29.92,East,99,1.2,0.0,83,0.00,CLR,,0.01,WeatherDisplay:10.37,2013-03-23 13:47:00,
2013-03-23 09:52:00,57.3,52.2,29.92,East,98,0.0,0.0,83,0.00,CLR,,0.01,WeatherDisplay:10.37,2013-03-23 13:52:00,
2013-03-23 09:57:00,57.8,52.7,29.92,ENE,78,5.8,5.8,83,0.00,CLR,,0.01,WeatherDisplay:10.37,2013-03-23 13:57:00,
2013-03-23 10:02:00,58.5,53.0,29.92,East,99,6.9,6.9,82,0.00,CLR,,0.01,WeatherDisplay:10.37,2013-03-23 14:02:00,
2013-03-23 10:07:00,59.0,53.2,29.92,East,99,5.8,5.8,81,0.00,CLR,,0.01,WeatherDisplay:10.37,2013-03-23 14:07:00,
2013-03-23 10:12:00,59.9,54.1,29.92,East,101,0.0,0.0,81,0.00,CLR,,0.01,WeatherDisplay:10.37,2013-03-23 14:12:00,
2013-03-23 10:17:00,60.6,54.7,29.91,ESE,109,3.5,3.5,81,0.00,CLR,,0.01,WeatherDisplay:10.37,2013-03-23 14:17:00,
2013-03-23 10:22:00,61.3,55.8,29.91,ESE,121,5.8,5.8,82,0.00,CLR,,0.01,WeatherDisplay:10.37,2013-03-23 14:22:00,
2013-03-23 10:28:00,62.0,55.8,29.91,SE,133,4.6,4.6,80,0.00,CLR,,0.01,WeatherDisplay:10.37,2013-03-23 14:28:00,
2013-03-23 10:33:00,62.5,56.2,29.91,SE,126,4.6,4.6,80,0.00,CLR,,0.01,WeatherDisplay:10.37,2013-03-23 14:33:00,
2013-03-23 10:38:00,62.9,56.6,29.90,SE,136,4.6,4.6,80,0.00,CLR,,0.01,WeatherDisplay:10.37,2013-03-23 14:38:00,
2013-03-23 10:43:00,63.6,57.3,29.89,SE,138,9.2,9.2,80,0.00,CLR,,0.01,WeatherDisplay:10.37,2013-03-23 14:43:00,
2013-03-23 10:48:00,64.1,57.8,29.90,SE,128,10.4,10.4,80,0.00,CLR,,0.01,WeatherDisplay:10.37,2013-03-23 14:48:00,
2013-03-23 10:53:00,64.4,57.7,29.91,SE,134,9.2,9.2,79,0.00,CLR,,0.01,WeatherDisplay:10.37,2013-03-23 14:53:00,
2013-03-23 10:58:00,64.5,58.2,29.92,South,173,4.6,4.6,80,0.00,CLR,,0.01,WeatherDisplay:10.37,2013-03-23 14:58:00,
2013-03-23 11:03:00,64.9,58.6,29.92,SSE,164,8.1,8.1,80,0.00,CLR,,0.01,WeatherDisplay:10.37,2013-03-23 15:03:00,
2013-03-23 11:08:00,65.2,58.9,29.91,SSE,164,4.6,4.6,80,0.00,CLR,,0.01,WeatherDisplay:10.37,2013-03-23 15:08:00,
2013-03-23 11:13:00,65.6,59.3,29.91,SE,144,5.8,5.8,80,0.00,CLR,,0.01,WeatherDisplay:10.37,2013-03-23 15:13:00,
2013-03-23 11:18:00,66.1,59.7,29.91,SSE,163,5.8,5.8,80,0.00,CLR,,0.01,WeatherDisplay:10.37,2013-03-23 15:18:00,
2013-03-23 11:23:00,66.5,60.1,29.91,SSE,153,4.6,4.6,80,0.00,CLR,,0.01,WeatherDisplay:10.37,2013-03-23 15:23:00,
2013-03-23 11:28:00,67.2,60.8,29.91,SSE,161,6.9,6.9,80,0.00,CLR,,0.01,WeatherDisplay:10.37,2013-03-23 15:28:00,
2013-03-23 11:33:00,67.7,61.0,29.91,SSE,153,9.2,9.2,79,0.00,CLR,,0.01,WeatherDisplay:10.37,2013-03-23 15:33:00,
2013-03-23 11:38:00,67.8,61.0,29.91,South,173,4.6,4.6,79,0.00,CLR,,0.01,WeatherDisplay:10.37,2013-03-23 15:38:00,
2013-03-23 11:43:00,67.8,61.0,29.91,SSW,192,8.1,8.1,79,0.00,CLR,,0.01,WeatherDisplay:10.37,2013-03-23 15:43:00,
2013-03-23 11:48:00,67.8,61.4,29.90,SSW,200,5.8,0.0,80,0.00,CLR,,0.01,WeatherDisplay:10.37,2013-03-23 15:48:00,
2013-03-23 11:53:00,68.1,61.7,29.90,SSE,157,11.5,11.5,80,0.00,CLR,,0.01,WeatherDisplay:10.37,2013-03-23 15:53:00,
2013-03-23 11:58:00,68.4,62.0,29.91,South,176,9.2,9.2,80,0.00,CLR,,0.01,WeatherDisplay:10.37,2013-03-23 15:58:00,
2013-03-23 12:03:00,68.6,61.8,29.91,SSE,150,13.8,13.8,79,0.00,CLR,,0.01,WeatherDisplay:10.37,2013-03-23 16:03:00,
2013-03-23 12:08:00,68.8,62.4,29.90,South,180,3.5,3.5,80,0.00,CLR,,0.01,WeatherDisplay:10.37,2013-03-23 16:08:00,
2013-03-23 12:13:00,69.3,62.9,29.90,SW,223,11.5,11.5,80,0.00,CLR,,0.01,WeatherDisplay:10.37,2013-03-23 16:13:00,
2013-03-23 12:18:00,69.3,62.5,29.92,WSW,243,3.5,3.5,79,0.00,CLR,,0.01,WeatherDisplay:10.37,2013-03-23 16:18:00,
2013-03-23 12:23:00,69.1,62.3,29.93,NW,323,0.0,0.0,79,0.00,CLR,,0.01,WeatherDisplay:10.37,2013-03-23 16:23:00,
2013-03-23 12:28:00,68.8,62.4,29.94,WNW,299,4.6,4.6,80,0.00,CLR,,0.01,WeatherDisplay:10.37,2013-03-23 16:28:00,
2013-03-23 12:33:00,67.9,60.1,29.94,NNW,345,8.0,8.0,76,0.00,CLR,,0.01,WeatherDisplay:10.37,2013-03-23 16:33:00,
2013-03-23 12:38:00,66.9,59.8,29.93,NW,323,0.0,0.0,78,0.03,RA,,0.05,WeatherDisplay:10.37,2013-03-23 16:38:00,
2013-03-23 12:43:00,65.9,59.9,29.93,NNE,25,3.0,3.0,81,0.05,RA,,0.06,WeatherDisplay:10.37,2013-03-23 16:43:00,
2013-03-23 12:48:00,64.5,58.5,29.95,NNE,18,6.9,6.9,81,0.05,RA,,0.06,WeatherDisplay:10.37,2013-03-23 16:48:00,
2013-03-23 12:53:00,62.9,57.7,29.94,NE,45,11.5,11.5,83,0.05,,,0.06,WeatherDisplay:10.37,2013-03-23 16:53:00,
2013-03-23 12:58:00,61.7,56.8,29.95,NE,44,12.0,12.0,84,0.05,CLR,,0.06,WeatherDisplay:10.37,2013-03-23 16:58:00,
2013-03-23 13:03:00,60.3,55.8,29.96,NE,37,11.5,11.5,85,0.05,CLR,,0.06,WeatherDisplay:10.37,2013-03-23 17:03:00,
2013-03-23 13:08:00,59.0,54.8,29.96,NE,47,11.5,11.5,86,0.06,RA,,0.07,WeatherDisplay:10.37,2013-03-23 17:08:00,
2013-03-23 13:13:00,58.1,54.2,29.94,NE,50,5.8,5.8,87,0.07,RA,,0.08,WeatherDisplay:10.37,2013-03-23 17:13:00,
2013-03-23 13:18:00,57.5,54.3,29.95,NE,45,10.4,10.4,89,0.08,RA,,0.09,WeatherDisplay:10.37,2013-03-23 17:18:00,
2013-03-23 13:23:00,56.7,53.5,29.95,NE,38,10.4,10.4,89,0.09,RA,,0.10,WeatherDisplay:10.37,2013-03-23 17:23:00,
2013-03-23 13:28:00,56.0,53.7,29.96,NE,34,10.4,10.4,92,0.09,RA,,0.10,WeatherDisplay:10.37,2013-03-23 17:28:00,
2013-03-23 13:33:00,55.3,52.1,29.98,NNE,28,13.8,13.8,89,0.10,RA,,0.11,WeatherDisplay:10.37,2013-03-23 17:33:00,
2013-03-23 13:38:00,54.6,51.4,29.98,NNE,25,6.9,6.9,89,0.06,RA,,0.11,WeatherDisplay:10.37,2013-03-23 17:38:00,
2013-03-23 13:43:00,54.0,50.8,29.97,NE,50,12.7,12.7,89,0.05,,,0.11,WeatherDisplay:10.37,2013-03-23 17:43:00,
2013-03-23 13:48:00,53.2,50.3,29.97,NE,34,10.4,10.4,90,0.05,CLR,,0.11,WeatherDisplay:10.37,2013-03-23 17:48:00,
2013-03-23 13:53:00,52.8,49.9,29.97,NNE,24,12.7,12.7,90,0.05,CLR,,0.11,WeatherDisplay:10.37,2013-03-23 17:53:00,
2013-03-23 13:58:00,52.2,49.4,29.97,NNE,28,11.5,11.5,90,0.05,CLR,,0.11,WeatherDisplay:10.37,2013-03-23 17:58:00,
2013-03-23 14:03:00,51.6,48.8,29.96,NNE,28,17.3,17.3,90,0.05,CLR,,0.11,WeatherDisplay:10.37,2013-03-23 18:03:00,
2013-03-23 14:08:00,50.9,48.1,29.95,ENE,64,16.0,16.0,90,0.04,CLR,,0.11,WeatherDisplay:10.37,2013-03-23 18:08:00,
2013-03-23 14:13:00,50.7,47.9,29.95,ENE,65,15.0,15.0,90,0.03,CLR,,0.11,WeatherDisplay:10.37,2013-03-23 18:13:00,
2013-03-23 14:18:00,50.8,48.3,29.94,NNE,30,15.0,15.0,91,0.02,CLR,,0.11,WeatherDisplay:10.37,2013-03-23 18:18:00,
2013-03-23 14:23:00,51.4,48.9,29.93,NE,54,16.1,16.1,91,0.01,CLR,,0.11,WeatherDisplay:10.37,2013-03-23 18:23:00,
2013-03-23 14:28:00,51.7,49.2,29.93,East,84,14.0,14.0,91,0.01,CLR,,0.11,WeatherDisplay:10.37,2013-03-23 18:28:00,
2013-03-23 14:33:00,51.7,48.9,29.93,NNE,24,13.8,13.8,90,0.00,CLR,,0.11,WeatherDisplay:10.37,2013-03-23 18:33:00,
2013-03-23 14:38:00,51.9,49.1,29.92,ENE,65,13.8,13.8,90,0.00,CLR,,0.11,WeatherDisplay:10.37,2013-03-23 18:38:00,
2013-03-23 14:43:00,51.9,48.8,29.91,NE,51,18.4,18.4,89,0.00,CLR,,0.11,WeatherDisplay:10.37,2013-03-23 18:43:00,
2013-03-23 14:48:00,52.1,49.0,29.90,East,80,13.0,13.0,89,0.00,CLR,,0.11,WeatherDisplay:10.37,2013-03-23 18:48:00,
2013-03-23 14:53:00,52.5,50.2,29.90,East,82,10.4,10.4,92,0.00,CLR,,0.11,WeatherDisplay:10.37,2013-03-23 18:53:00,
2013-03-23 14:58:00,53.2,50.0,29.90,NNE,30,12.0,12.0,89,0.00,CLR,,0.11,WeatherDisplay:10.37,2013-03-23 18:58:00,
2013-03-23 15:03:00,53.5,49.7,29.90,East,88,13.0,13.0,87,0.00,CLR,,0.11,WeatherDisplay:10.37,2013-03-23 19:03:00,
2013-03-23 15:08:00,53.6,49.5,29.90,East,82,12.7,12.7,86,0.00,CLR,,0.11,WeatherDisplay:10.37,2013-03-23 19:08:00,
2013-03-23 15:13:00,53.8,49.7,29.90,ENE,71,10.4,10.4,86,0.01,RA,,0.12,WeatherDisplay:10.37,2013-03-23 19:13:00,
2013-03-23 15:18:00,53.9,49.2,29.89,ENE,63,16.1,16.1,84,0.01,RA,,0.12,WeatherDisplay:10.37,2013-03-23 19:18:00,
2013-03-23 15:23:00,54.2,49.8,29.88,East,90,14.0,14.0,85,0.01,,,0.12,WeatherDisplay:10.37,2013-03-23 19:23:00,
2013-03-23 15:28:00,54.5,49.4,29.88,ENE,62,15.0,15.0,83,0.01,CLR,,0.12,WeatherDisplay:10.37,2013-03-23 19:28:00,
2013-03-23 15:33:00,54.5,49.4,29.88,ESE,103,10.0,10.0,83,0.01,CLR,,0.12,WeatherDisplay:10.37,2013-03-23 19:33:00,
2013-03-23 15:38:00,54.5,49.8,29.87,ENE,74,9.2,9.2,84,0.01,CLR,,0.12,WeatherDisplay:10.37,2013-03-23 19:38:00,
2013-03-23 15:43:00,54.8,50.1,29.87,ENE,62,5.0,5.0,84,0.01,CLR,,0.12,WeatherDisplay:10.37,2013-03-23 19:43:00,
2013-03-23 15:48:00,55.1,50.0,29.87,ESE,109,4.6,0.0,83,0.01,CLR,,0.12,WeatherDisplay:10.37,2013-03-23 19:48:00,
2013-03-23 15:53:00,55.7,50.3,29.86,East,92,11.5,11.5,82,0.01,CLR,,0.12,WeatherDisplay:10.37,2013-03-23 19:53:00,
2013-03-23 15:58:00,55.9,50.5,29.85,East,80,8.1,8.1,82,0.01,CLR,,0.12,WeatherDisplay:10.37,2013-03-23 19:58:00,
2013-03-23 16:03:00,56.4,51.0,29.85,East,95,11.5,11.5,82,0.01,CLR,,0.12,WeatherDisplay:10.37,2013-03-23 20:03:00,
2013-03-23 16:08:00,56.6,50.8,29.85,ESE,103,13.8,13.8,81,0.01,CLR,,0.12,WeatherDisplay:10.37,2013-03-23 20:08:00,
2013-03-23 16:13:00,56.7,50.9,29.84,East,101,4.6,0.0,81,0.00,CLR,,0.12,WeatherDisplay:10.37,2013-03-23 20:13:00,
2013-03-23 16:18:00,57.4,51.3,29.84,ENE,71,11.5,11.5,80,0.00,CLR,,0.12,WeatherDisplay:10.37,2013-03-23 20:18:00,
2013-03-23 16:23:00,57.7,51.2,29.83,SE,124,10.4,10.4,79,0.00,CLR,,0.12,WeatherDisplay:10.37,2013-03-23 20:23:00,
2013-03-23 16:28:00,57.8,51.3,29.83,East,89,10.0,10.0,79,0.00,CLR,,0.12,WeatherDisplay:10.37,2013-03-23 20:28:00,
2013-03-23 16:33:00,58.0,51.2,29.82,ENE,69,11.5,11.5,78,0.00,CLR,,0.12,WeatherDisplay:10.37,2013-03-23 20:33:00,
2013-03-23 16:38:00,58.0,51.5,29.82,East,80,11.5,11.5,79,0.00,CLR,,0.12,WeatherDisplay:10.37,2013-03-23 20:38:00,
2013-03-23 16:43:00,57.9,51.4,29.83,SE,146,0.0,0.0,79,0.00,CLR,,0.12,WeatherDisplay:10.37,2013-03-23 20:43:00,
2013-03-23 16:48:00,58.0,51.5,29.84,ESE,109,8.1,8.1,79,0.00,CLR,,0.12,WeatherDisplay:10.37,2013-03-23 20:48:00,
2013-03-23 16:53:00,58.3,52.2,29.83,SE,125,0.0,2.4,80,0.00,CLR,,0.12,WeatherDisplay:10.37,2013-03-23 20:53:00,
2013-03-23 16:59:00,58.5,52.0,29.84,SE,139,8.1,8.1,79,0.00,CLR,,0.12,WeatherDisplay:10.37,2013-03-23 20:59:00,
2013-03-23 17:04:00,58.9,52.1,29.84,SE,131,6.9,6.9,78,0.00,CLR,,0.12,WeatherDisplay:10.37,2013-03-23 21:04:00,
2013-03-23 17:09:00,59.0,52.1,29.83,SE,145,3.5,3.5,78,0.00,CLR,,0.12,WeatherDisplay:10.37,2013-03-23 21:09:00,
2013-03-23 17:14:00,59.0,52.1,29.83,SE,136,10.4,10.4,78,0.00,CLR,,0.12,WeatherDisplay:10.37,2013-03-23 21:14:00,
2013-03-23 17:19:00,59.0,52.1,29.84,SSE,159,3.0,3.0,78,0.00,CLR,,0.12,WeatherDisplay:10.37,2013-03-23 21:19:00,
2013-03-23 17:24:00,59.0,52.1,29.84,SE,132,14.0,14.0,78,0.00,CLR,,0.12,WeatherDisplay:10.37,2013-03-23 21:24:00,
2013-03-23 17:29:00,58.9,52.1,29.85,ESE,107,6.9,6.9,78,0.00,CLR,,0.12,WeatherDisplay:10.37,2013-03-23 21:29:00,
2013-03-23 17:34:00,58.6,52.1,29.84,ESE,104,0.0,0.0,79,0.00,CLR,,0.12,WeatherDisplay:10.37,2013-03-23 21:34:00,
2013-03-23 17:39:00,58.4,51.9,29.84,SE,134,0.0,0.0,79,0.00,CLR,,0.12,WeatherDisplay:10.37,2013-03-23 21:39:00,
2013-03-23 17:44:00,58.3,51.8,29.84,ESE,120,4.6,4.6,79,0.00,CLR,,0.12,WeatherDisplay:10.37,2013-03-23 21:44:00,
2013-03-23 17:49:00,58.1,51.6,29.84,ESE,113,4.6,4.6,79,0.00,CLR,,0.12,WeatherDisplay:10.37,2013-03-23 21:49:00,
2013-03-23 17:54:00,58.1,52.0,29.84,ESE,105,5.8,5.8,80,0.00,CLR,,0.12,WeatherDisplay:10.37,2013-03-23 21:54:00,
2013-03-23 17:59:00,58.0,51.9,29.84,ESE,123,0.0,0.0,80,0.00,CLR,,0.12,WeatherDisplay:10.37,2013-03-23 21:59:00,
2013-03-23 18:04:00,58.0,51.9,29.84,ESE,103,5.8,5.8,80,0.00,CLR,,0.12,WeatherDisplay:10.37,2013-03-23 22:04:00,
2013-03-23 18:09:00,58.0,52.2,29.85,East,80,0.0,0.0,81,0.00,CLR,,0.12,WeatherDisplay:10.37,2013-03-23 22:09:00,
2013-03-23 18:14:00,58.0,51.9,29.85,East,95,3.5,3.5,80,0.00,CLR,,0.12,WeatherDisplay:10.37,2013-03-23 22:14:00,
2013-03-23 18:19:00,57.9,51.8,29.85,East,96,3.0,3.0,80,0.00,CLR,,0.12,WeatherDisplay:10.37,2013-03-23 22:19:00,
2013-03-23 18:24:00,57.9,51.8,29.86,ENE,78,0.0,0.0,80,0.00,CLR,,0.12,WeatherDisplay:10.37,2013-03-23 22:24:00,
2013-03-23 18:29:00,57.9,52.1,29.86,East,86,0.0,0.0,81,0.00,CLR,,0.12,WeatherDisplay:10.37,2013-03-23 22:29:00,
2013-03-23 18:34:00,57.9,52.1,29.86,ESE,102,4.6,4.6,81,0.00,CLR,,0.12,WeatherDisplay:10.37,2013-03-23 22:34:00,
2013-03-23 18:39:00,57.8,52.0,29.86,ESE,120,3.5,3.5,81,0.00,CLR,,0.12,WeatherDisplay:10.37,2013-03-23 22:39:00,
2013-03-23 18:44:00,57.8,52.0,29.87,SE,138,5.8,5.8,81,0.00,CLR,,0.12,WeatherDisplay:10.37,2013-03-23 22:44:00,
2013-03-23 18:49:00,57.8,52.0,29.87,SE,132,2.3,2.3,81,0.00,CLR,,0.12,WeatherDisplay:10.37,2013-03-23 22:49:00,
2013-03-23 18:54:00,57.7,51.9,29.87,East,95,3.5,3.5,81,0.00,CLR,,0.12,WeatherDisplay:10.37,2013-03-23 22:54:00,
2013-03-23 18:59:00,57.6,51.8,29.88,ESE,115,0.0,0.0,81,0.00,CLR,,0.12,WeatherDisplay:10.37,2013-03-23 22:59:00,
2013-03-23 19:04:00,57.6,51.8,29.89,ESE,118,3.5,3.5,81,0.00,CLR,,0.12,WeatherDisplay:10.37,2013-03-23 23:04:00,
2013-03-23 19:09:00,57.5,51.7,29.89,SE,142,0.0,0.0,81,0.00,CLR,,0.12,WeatherDisplay:10.37,2013-03-23 23:09:00,
2013-03-23 19:14:00,57.4,51.6,29.89,SE,144,7.0,7.0,81,0.00,CLR,,0.12,WeatherDisplay:10.37,2013-03-23 23:14:00,
2013-03-23 19:19:00,57.3,51.5,29.89,SE,141,3.5,3.5,81,0.00,CLR,,0.12,WeatherDisplay:10.37,2013-03-23 23:19:00,
2013-03-23 19:24:00,57.1,51.7,29.89,SE,128,5.8,5.8,82,0.00,CLR,,0.12,WeatherDisplay:10.37,2013-03-23 23:24:00,
2013-03-23 19:29:00,56.9,51.5,29.89,SE,144,8.0,8.0,82,0.00,CLR,,0.12,WeatherDisplay:10.37,2013-03-23 23:29:00,
2013-03-23 19:34:00,56.8,51.4,29.89,SE,136,6.9,6.9,82,0.00,CLR,,0.12,WeatherDisplay:10.37,2013-03-23 23:34:00,
2013-03-23 19:39:00,56.6,51.5,29.90,SE,142,5.8,5.8,83,0.00,CLR,,0.12,WeatherDisplay:10.37,2013-03-23 23:39:00,
2013-03-23 19:44:00,56.5,51.4,29.90,SSE,150,0.0,0.0,83,0.00,CLR,,0.12,WeatherDisplay:10.37,2013-03-23 23:44:00,
2013-03-23 19:49:00,56.4,51.3,29.90,East,90,0.0,0.0,83,0.00,CLR,,0.12,WeatherDisplay:10.37,2013-03-23 23:49:00,
2013-03-23 19:54:00,56.3,51.5,29.90,East,90,0.0,0.0,84,0.00,CLR,,0.12,WeatherDisplay:10.37,2013-03-23 23:54:00,
2013-03-23 19:59:00,56.3,51.8,29.90,East,90,0.0,0.0,85,0.00,CLR,,0.12,WeatherDisplay:10.37,2013-03-23 23:59:00,
2013-03-23 20:04:00,56.2,51.7,29.91,East,90,0.0,0.0,85,0.00,CLR,,0.12,WeatherDisplay:10.37,2013-03-24 00:04:00,
2013-03-23 20:09:00,56.0,51.9,29.90,East,90,0.0,0.0,86,0.01,RA,,0.13,WeatherDisplay:10.37,2013-03-24 00:09:00,
2013-03-23 20:14:00,55.9,52.1,29.90,East,90,0.0,0.0,87,0.01,RA,,0.13,WeatherDisplay:10.37,2013-03-24 00:14:00,
2013-03-23 20:19:00,55.8,52.3,29.89,East,90,0.0,0.0,88,0.02,RA,,0.14,WeatherDisplay:10.37,2013-03-24 00:19:00,
2013-03-23 20:24:00,55.6,52.1,29.90,ENE,68,0.0,0.0,88,0.02,RA,,0.14,WeatherDisplay:10.37,2013-03-24 00:24:00,
2013-03-23 20:29:00,55.3,52.1,29.88,East,96,0.0,0.0,89,0.02,CLR,,0.14,WeatherDisplay:10.37,2013-03-24 00:29:00,
2013-03-23 20:34:00,54.9,51.7,29.88,ESE,103,0.0,0.0,89,0.02,CLR,,0.14,WeatherDisplay:10.37,2013-03-24 00:34:00,
2013-03-23 20:39:00,54.7,51.8,29.88,ENE,76,6.9,6.9,90,0.02,CLR,,0.14,WeatherDisplay:10.37,2013-03-24 00:39:00,
2013-03-23 20:44:00,54.6,52.0,29.88,East,93,3.5,3.5,91,0.02,CLR,,0.14,WeatherDisplay:10.37,2013-03-24 00:44:00,
2013-03-23 20:49:00,54.5,51.9,29.88,East,100,0.0,0.0,91,0.02,CLR,,0.14,WeatherDisplay:10.37,2013-03-24 00:49:00,
2013-03-23 20:54:00,54.5,51.9,29.88,ESE,105,6.9,6.9,91,0.02,CLR,,0.14,WeatherDisplay:10.37,2013-03-24 00:54:00,
2013-03-23 20:59:00,54.4,51.8,29.86,SE,126,4.6,4.6,91,0.02,CLR,,0.14,WeatherDisplay:10.37,2013-03-24 00:59:00,
2013-03-23 21:04:00,54.4,52.1,29.86,East,100,3.0,3.0,92,0.02,CLR,,0.14,WeatherDisplay:10.37,2013-03-24 01:04:00,
2013-03-23 21:09:00,54.3,52.0,29.86,ESE,119,0.0,0.0,92,0.01,CLR,,0.14,WeatherDisplay:10.37,2013-03-24 01:09:00,
2013-03-23 21:14:00,54.3,52.0,29.85,ESE,112,6.9,6.9,92,0.01,CLR,,0.14,WeatherDisplay:10.37,2013-03-24 01:14:00,
2013-03-23 21:19:00,54.3,52.0,29.84,ESE,117,4.6,4.6,92,0.00,CLR,,0.14,WeatherDisplay:10.37,2013-03-24 01:19:00,
2013-03-23 21:24:00,54.3,52.0,29.86,NE,53,8.1,8.1,92,0.00,CLR,,0.14,WeatherDisplay:10.37,2013-03-24 01:24:00,
2013-03-23 21:29:00,54.4,52.4,29.87,NE,53,0.0,0.0,93,0.00,CLR,,0.14,WeatherDisplay:10.37,2013-03-24 01:29:00,
2013-03-23 21:34:00,54.4,52.4,29.87,ENE,72,3.5,3.5,93,0.00,CLR,,0.14,WeatherDisplay:10.37,2013-03-24 01:34:00,
2013-03-23 21:39:00,54.5,52.5,29.86,NE,51,0.0,0.0,93,0.01,RA,,0.15,WeatherDisplay:10.37,2013-03-24 01:39:00,
2013-03-23 21:44:00,54.5,52.5,29.87,NE,34,6.9,6.9,93,0.01,RA,,0.15,WeatherDisplay:10.37,2013-03-24 01:44:00,
2013-03-23 21:49:00,54.5,52.5,29.85,ENE,71,5.8,5.8,93,0.01,CLR,,0.15,WeatherDisplay:10.37,2013-03-24 01:49:00,
2013-03-23 21:54:00,54.6,52.6,29.87,ENE,65,0.0,0.0,93,0.01,CLR,,0.15,WeatherDisplay:10.37,2013-03-24 01:54:00,
2013-03-23 21:59:00,54.6,52.6,29.87,East,79,0.0,0.0,93,0.01,CLR,,0.15,WeatherDisplay:10.37,2013-03-24 01:59:00,
2013-03-23 22:04:00,54.7,53.0,29.86,East,85,0.0,0.0,94,0.01,CLR,,0.15,WeatherDisplay:10.37,2013-03-24 02:04:00,
2013-03-23 22:09:00,54.8,53.1,29.86,East,94,4.6,4.6,94,0.01,CLR,,0.15,WeatherDisplay:10.37,2013-03-24 02:09:00,
2013-03-23 22:14:00,54.9,53.2,29.86,ESE,111,7.0,7.0,94,0.01,CLR,,0.15,WeatherDisplay:10.37,2013-03-24 02:14:00,
2013-03-23 22:19:00,54.9,53.2,29.85,ESE,112,4.6,4.6,94,0.01,CLR,,0.15,WeatherDisplay:10.37,2013-03-24 02:19:00,
2013-03-23 22:24:00,55.0,53.3,29.85,ESE,105,5.8,5.8,94,0.01,CLR,,0.15,WeatherDisplay:10.37,2013-03-24 02:24:00,
2013-03-23 22:29:00,55.1,53.4,29.84,ESE,105,5.8,5.8,94,0.01,CLR,,0.15,WeatherDisplay:10.37,2013-03-24 02:29:00,
2013-03-23 22:34:00,55.1,53.4,29.85,East,83,7.0,7.0,94,0.01,CLR,,0.15,WeatherDisplay:10.37,2013-03-24 02:34:00,
2013-03-23 22:39:00,55.2,53.5,29.84,East,79,4.6,4.6,94,0.00,CLR,,0.15,WeatherDisplay:10.37,2013-03-24 02:39:00,
2013-03-23 22:44:00,55.3,53.6,29.84,ENE,67,6.9,6.9,94,0.00,CLR,,0.15,WeatherDisplay:10.37,2013-03-24 02:44:00,
2013-03-23 22:49:00,55.3,53.6,29.84,East,101,1.2,1.2,94,0.00,CLR,,0.15,WeatherDisplay:10.37,2013-03-24 02:49:00,
2013-03-23 22:54:00,55.3,53.6,29.84,East,92,9.2,9.2,94,0.00,CLR,,0.15,WeatherDisplay:10.37,2013-03-24 02:54:00,
2013-03-23 22:59:00,55.4,53.7,29.85,SE,140,6.9,6.9,94,0.00,CLR,,0.15,WeatherDisplay:10.37,2013-03-24 02:59:00,
2013-03-23 23:04:00,55.4,53.7,29.84,ENE,71,6.9,6.9,94,0.00,CLR,,0.15,WeatherDisplay:10.37,2013-03-24 03:04:00,
2013-03-23 23:09:00,55.5,53.8,29.82,ENE,76,8.1,8.1,94,0.00,CLR,,0.15,WeatherDisplay:10.37,2013-03-24 03:09:00,
2013-03-23 23:14:00,55.5,53.8,29.83,ENE,71,8.1,8.1,94,0.00,CLR,,0.15,WeatherDisplay:10.37,2013-03-24 03:14:00,
2013-03-23 23:19:00,55.6,53.9,29.83,NE,40,6.9,6.9,94,0.00,CLR,,0.15,WeatherDisplay:10.37,2013-03-24 03:19:00,
2013-03-23 23:24:00,55.7,54.0,29.83,East,94,6.9,6.9,94,0.00,CLR,,0.15,WeatherDisplay:10.37,2013-03-24 03:24:00,
2013-03-23 23:29:00,55.7,54.0,29.85,ESE,112,1.2,1.2,94,0.00,CLR,,0.15,WeatherDisplay:10.37,2013-03-24 03:29:00,
2013-03-23 23:34:00,55.8,54.1,29.87,SE,133,0.0,0.0,94,0.00,CLR,,0.15,WeatherDisplay:10.37,2013-03-24 03:34:00,
2013-03-23 23:39:00,55.9,54.2,29.86,East,88,5.0,5.0,94,0.00,CLR,,0.15,WeatherDisplay:10.37,2013-03-24 03:39:00,
2013-03-23 23:44:00,55.8,54.1,29.84,ESE,108,7.0,7.0,94,0.00,CLR,,0.15,WeatherDisplay:10.37,2013-03-24 03:44:00,
2013-03-23 23:49:00,55.7,54.0,29.83,East,84,8.1,8.1,94,0.01,RA,,0.16,WeatherDisplay:10.37,2013-03-24 03:49:00,
2013-03-23 23:54:00,55.7,54.0,29.82,East,96,9.2,9.2,94,0.02,RA,,0.17,WeatherDisplay:10.37,2013-03-24 03:54:00,
2013-03-23 23:59:00,55.6,53.9,29.82,SE,126,8.1,8.1,94,0.03,RA,,0.18,WeatherDisplay:10.37,2013-03-24 03:59:00,